This is the latest recevied weather packets stored in our database for station/object HS9LWR-1. If no packets are shown the sender has not sent any weather packets the latest 10 day(s).
| Time | Temp. | Humidity | Pressure | Rain* | Wind** | Luminosity | Snow |
|---|---|---|---|---|---|---|---|
| 1788011200 | 31.67° C | 57% | 1011 hPa | - | - | 0 W/m² | - |
| 1788010578 | 31.67° C | 56% | 1011 hPa | - | - | 0 W/m² | - |
| 1788009956 | 31.67° C | 56% | 1011 hPa | - | - | 0 W/m² | - |
| 1788009334 | 31.67° C | 56% | 1011 hPa | - | - | 0 W/m² | - |
| 1788008712 | 31.67° C | 56% | 1011 hPa | - | - | 0 W/m² | - |
| 1788008090 | 31.67° C | 56% | 1011 hPa | - | - | 0 W/m² | - |
| 1788007468 | 31.67° C | 55% | 1011 hPa | - | - | 0 W/m² | - |
| 1788006845 | 31.67° C | 55% | 1010 hPa | - | - | 0 W/m² | - |
| 1788006223 | 31.67° C | 56% | 1010 hPa | - | - | 0 W/m² | - |
| 1788005601 | 31.67° C | 56% | 1010 hPa | - | - | 0 W/m² | - |
| 1788004979 | 32.22° C | 54% | 1010 hPa | - | - | 0 W/m² | - |
| 1788004357 | 32.22° C | 54% | 1010 hPa | - | - | 0 W/m² | - |
| 1788003735 | 32.22° C | 55% | 1010 hPa | - | - | 0 W/m² | - |
| 1788003113 | 31.67° C | 56% | 1010 hPa | - | - | 0 W/m² | - |
| 1788002476 | 31.67° C | 55% | 1009 hPa | - | - | 0 W/m² | - |
| 1787997486 | 32.78° C | 46% | 1009 hPa | - | - | 0 W/m² | - |
| 1787996864 | 32.22° C | 47% | 1009 hPa | - | - | 0 W/m² | - |
| 1787996242 | 32.22° C | 49% | 1010 hPa | - | - | 0 W/m² | - |
| 1787995620 | 32.78° C | 51% | 1010 hPa | - | - | 0 W/m² | - |
| 1787994998 | 33.89° C | 50% | 1010 hPa | - | - | 0 W/m² | - |
| 1787994376 | 35° C | 54% | 1009 hPa | - | - | 0 W/m² | - |
| 1787993754 | 35° C | 55% | 1009 hPa | - | - | 0 W/m² | - |
| 1787993132 | 35° C | 55% | 1009 hPa | - | - | 0 W/m² | - |
| 1787992510 | 35° C | 56% | 1009 hPa | - | - | 0 W/m² | - |
| 1787991888 | 35° C | 56% | 1009 hPa | - | - | 0 W/m² | - |
* Rain since midnight (hover to see other rain measurements)
** Current wind speed in m/s (hover to see current wind gust speed)